Regional Weather Roundup
Issued by NWS

Home | Current Version | Previous Version | Text Only | Print | Product List | Glossary Off
Versions: 1 2 3 4 5 6 7 8 9 10 11 12 13 14 15 16 17 18 19 20 21 22 23 24 25 26 27 28 29 30 31 32 33 34 35 36 37 38 39 40 41 42 43 44 45 46 47 48 49 50

407
ASUS43 KLSX 252107
RWRMO

WEATHER SUMMARY FOR MISSOURI
NATIONAL WEATHER SERVICE SPRINGFIELD MO
400 PM CDT TUE APR 25 2017

NOTE: "FAIR" INDICATES FEW OR NO CLOUDS BELOW 12,000 FEET WITH NO
       SIGNIFICANT WEATHER AND/OR OBSTRUCTIONS TO VISIBILITY.
       CURRENT SKY AND/OR WEATHER CONDITIONS ARE NOT AVAILABLE FOR
       CHILLICOTHE AND FARMINGTON.

MOZ001>031-035>038-043-044-053-054-252200-
...NORTHERN AND WESTERN MISSOURI...

CITY           SKY/WX    TMP DP  RH WIND       PRES   REMARKS
KANSAS CTY INT CLOUDY    71  57  61 SW7       29.41S
KANSAS C DTWN  CLOUDY    75  57  53 SW9       29.39S
LEE`S SUMMIT   CLOUDY    75  57  53 SW12      29.41F
ST JOSEPH      CLOUDY    69  55  60 S5        29.42R
CHILLICOTHE      N/A     74  55  51 VRB6      29.41F
KIRKSVILLE     PTSUNNY   77  53  43 S10G21    29.42F

$$
MOZ066>068-077>081-088>096-101>105-252200-
...SOUTHWEST MISSOURI...

CITY           SKY/WX    TMP DP  RH WIND       PRES   REMARKS
SPRINGFIELD    SUNNY     80  58  46 SW17G29   29.43S
JOPLIN         CLOUDY    80  61  52 SW15G22   29.41F
BRANSON        PTSUNNY   77  55  47 S12G21    29.48S

$$
MOZ032>034-039>042-045>050-055>058-069>072-252200-
...CENTRAL MISSOURI...

CITY           SKY/WX    TMP DP  RH WIND       PRES   REMARKS
COLUMBIA       CLOUDY    82  54  37 S17G26    29.42F
JEFFERSON CITY SUNNY     84  52  33 S15G29    29.41F
ROLLA          MOSUNNY   79  53  40 S23G32    29.44F
SEDALIA        CLOUDY    80  55  42 S18G25    29.41F
WHITEMAN AFB   PTSUNNY   77  58  50 S16G23    29.39F
OSAGE BEACH    MOSUNNY   80  55  42 S13G26    29.45S

$$
MOZ051-052-059>065-252200-
...EAST CENTRAL MISSOURI...

CITY           SKY/WX    TMP DP  RH WIND       PRES   REMARKS
ST LOUIS INTL  PTSUNNY   81  51  35 SE24G35   29.48F
SPIRIT OF STL  PTSUNNY   82  46  28 S16G26    29.46F
ST CHARLES     SUNNY     81  50  33 SE26G38   29.47F

$$
MOZ072>076-082>087-097>100-106>115-252200-
...SOUTH CENTRAL AND SOUTHEAST MISSOURI...

CITY           SKY/WX    TMP DP  RH WIND       PRES   REMARKS
CAPE GIRARDEAU SUNNY     78  53  41 S14G23    29.60F
FARMINGTON     SUNNY     76  52  43 SE23G30   29.54F
POPLAR BLUFF   SUNNY     78  54  43 S17G24    29.58F
WEST PLAINS    SUNNY     78  52  40 S16G26    29.53F

$$



USA.gov is the U.S. government's official web portal to all federal, state and local government web resources and services.